Location: Clinton NY
(43.0598°N, 75.3602°W)
Time: 17:48:17
(UTC-04:00)

Iridium 11 - Visible Passes

Search period start: 31 August 2015 00:00
Search period end: 10 September 2015 00:00
Orbit: 776 x 779 km, 86.4° (Epoch: 31 August)

Date Brightness Start Highest point End Pass type
(mag) Time Alt. Az. Time Alt. Az. Time Alt. Az.
31 Aug 8.1 00:03:59 10° NE 00:04:45 12° NE 00:04:45 12° NE visible
31 Aug 7.6 01:43:13 10° N 01:45:13 23° NNW 01:45:13 23° NNW visible
01 Sep 7.6 01:09:38 10° N 01:11:37 23° N 01:11:37 23° N visible
02 Sep 7.8 00:36:20 10° NNE 00:38:01 20° NNE 00:38:01 20° NNE visible
02 Sep 8.0 02:17:33 10° NNW 02:18:29 14° NW 02:18:29 14° NW visible
03 Sep 8.0 00:03:22 10° NNE 00:04:26 14° NNE 00:04:26 14° NNE visible
03 Sep 7.8 01:43:27 10° NNW 01:44:53 18° NNW 01:44:53 18° NNW visible
04 Sep 7.8 01:09:42 10° N 01:11:18 20° N 01:11:18 20° N visible
05 Sep 7.9 00:36:14 10° N 00:37:44 19° N 00:37:44 19° N visible
06 Sep 8.0 00:03:02 10° NNE 00:04:09 16° NNE 00:04:09 16° NNE visible
06 Sep 8.1 01:43:48 10° NNW 01:44:37 14° NNW 01:44:37 14° NNW visible
06 Sep 8.2 23:30:17 10° NNE 23:30:35 11° NNE 23:30:35 11° NNE visible
07 Sep 8.0 01:09:51 10° NNW 01:11:03 17° NNW 01:11:03 17° NNW visible
08 Sep 8.0 00:36:13 10° N 00:37:29 18° N 00:37:29 18° N visible
09 Sep 8.0 00:02:50 10° N 00:03:55 16° NNE 00:03:55 16° NNE visible
09 Sep 8.3 01:44:18 10° NNW 01:44:23 10° NNW 01:44:23 10° NNW visible
09 Sep 8.1 23:29:47 10° NNE 23:30:22 12° NNE 23:30:22 12° NNE visible
